{"data":{"norad_id":64168,"intl_designator":"2025-112Y","name":"STARLINK-34303","alt_names":[],"object_type":"PAYLOAD","status":"ACTIVE","operator":null,"country":"US","launch_date":"2025-05-27","launch_site_code":"AFWTR","launch_vehicle":null,"mission":null,"orbit_class":"UNKNOWN","rcs_meters":null,"size_class":null,"mass_kg":null,"dimensions":null,"purposes":["comms"],"wikipedia_slug":null,"has_3d_model":false,"image_url":null,"decayed_at":null,"tle_current":{"epoch":"2026-09-19T02:47:09.744864Z","epoch_age_seconds":260048,"freshness":"STALE","line1":"1 64168U 25112Y   26262.11608501  .00021494  00000+0  66582-3 0  9995","line2":"2 64168  97.2840 309.1748 0001736  93.6415 266.5027 15.33462543 72535","mean_motion":15.33462543,"eccentricity":0.0001736,"inclination_deg":97.284,"raan_deg":309.1748,"arg_perigee_deg":93.6415,"mean_anomaly_deg":266.5027,"bstar":0.00066582,"rev_number":7253,"period_min":93.90513035831,"perigee_km":464.30292553307,"apogee_km":466.6790331675,"semimajor_km":6843.6279793503,"source":"CELESTRAK","updated_at":"2026-09-21T09:00:35.242177Z"}}}